Moab, UT

7:28 AM MST on November 20, 2019 (GMT -0700)
Canyonlands

Weather History for KCNY - May, 2019

Change the Weather History Date:

Saturday, May 4, 2019

  Actual Average Record
Temperature  
Mean Temperature 60 °F 58 °F  
Max Temperature 76 °F 73 °F 93 °F (1936)
Min Temperature 43 °F 44 °F 34 °F (2013)
Degree Days  
Heating Degree Days 5 7  
Month to date heating degree days 48 30  
Since 1 July heating degree days 5618 5455  
Cooling Degree Days 0 1  
Month to date cooling degree days 0 2  
Year to date cooling degree days 2 5  
Growing Degree Days 10 (Base 50)    
Moisture  
Dew Point 31 °F    
Average Humidity 42    
Maximum Humidity 71    
Minimum Humidity 12    
Precipitation  
Precipitation 0.00 in 0.02 in 0.53 in (1950)
Month to date precipitation 0.00 0.09  
Year to date precipitation 4.99 2.71  
Sea Level Pressure  
Sea Level Pressure 29.82 in    
Wind  
Wind Speed 6 mph (West)    
Max Wind Speed 24 mph    
Max Gust Speed 34 mph    
Visibility 10 miles    
Events      
T = Trace of Precipitation, MM = Missing Value Source: NWS Daily Summary

Daily Weather History Graph

Daily Weather History Graph

Search for Another Location

Airport or City:

Astronomy

May. 04, 2019 Rise Set
Actual Time 6:18 AM MDT 8:14 PM MDT
Civil Twilight 5:49 AM MDT 8:43 PM MDT
Nautical Twilight 5:14 AM MDT 9:18 PM MDT
Astronomical Twilight 4:36 AM MDT 9:56 PM MDT
Moon 6:30 AM MDT (5/4) 8:07 PM MDT (5/4)
Length of Visible Light 14h 53m
Length of Day
13h 55m
Waning Crescent, 0% of the Moon is Illuminated
May 4
Waning Crescent
May 4
New
May 11
First Quarter
May 18
Full
May 26
Last Quarter

Hourly Weather History & Observations

Time (MDT) Temp. Windchill Dew Point Humidity Pressure Visibility Wind Dir Wind Speed Gust Speed Precip Events Conditions
12:53 AM 52.0 °F - 37.0 °F 57% 29.87 in 10.0 mi WSW 3.5 mph - N/A   Clear
1:53 AM 48.9 °F - 36.0 °F 61% 29.87 in 10.0 mi Calm Calm - N/A   Partly Cloudy
2:53 AM 48.9 °F - 32.0 °F 52% 29.86 in 10.0 mi Calm Calm - N/A   Clear
3:53 AM 48.0 °F - 33.1 °F 56% 29.86 in 10.0 mi Calm Calm - N/A   Clear
4:53 AM 46.0 °F 43.9 °F 37.0 °F 71% 29.87 in 10.0 mi WSW 4.6 mph - N/A   Clear
5:53 AM 46.9 °F - 35.1 °F 63% 29.86 in 10.0 mi Calm Calm - N/A   Clear
6:53 AM 46.0 °F - 36.0 °F 68% 29.88 in 10.0 mi Calm Calm - N/A   Clear
7:53 AM 51.1 °F - 37.0 °F 59% 29.89 in 10.0 mi SSE 3.5 mph - N/A   Clear
8:53 AM 57.9 °F - 34.0 °F 41% 29.89 in 10.0 mi ESE 5.8 mph - N/A   Clear
9:53 AM 62.1 °F - 28.9 °F 29% 29.88 in 10.0 mi SE 5.8 mph - N/A   Clear
10:53 AM 64.9 °F - 28.9 °F 26% 29.88 in 10.0 mi Calm Calm - N/A   Clear
11:53 AM 66.9 °F - 28.0 °F 23% 29.87 in 10.0 mi Variable 3.5 mph - N/A   Clear
12:53 PM 70.0 °F - 27.0 °F 20% 29.84 in 10.0 mi Variable 5.8 mph - N/A   Clear
1:53 PM 75.0 °F - 28.0 °F 18% 29.81 in 10.0 mi Variable 5.8 mph - N/A   Clear
2:53 PM 73.0 °F - 21.0 °F 14% 29.78 in 10.0 mi NNW 8.1 mph - N/A   Clear
3:53 PM 75.0 °F - 19.0 °F 12% 29.76 in 10.0 mi WNW 8.1 mph 16.1 mph N/A   Partly Cloudy
4:53 PM 73.9 °F - 25.0 °F 16% 29.76 in 10.0 mi North 10.4 mph 24.2 mph N/A   Clear
5:53 PM 72.0 °F - 24.1 °F 17% 29.75 in 10.0 mi West 9.2 mph 23.0 mph N/A   Clear
6:53 PM 72.0 °F - 24.1 °F 17% 29.75 in 10.0 mi West 6.9 mph - N/A   Scattered Clouds
7:53 PM 69.1 °F - 28.0 °F 22% 29.75 in 10.0 mi West 6.9 mph - N/A   Partly Cloudy
8:53 PM 64.9 °F - 33.1 °F 31% 29.77 in 10.0 mi NW 24.2 mph 33.4 mph N/A   Mostly Cloudy
9:53 PM 63.0 °F - 33.1 °F 33% 29.78 in 10.0 mi NNW 11.5 mph - N/A   Clear
10:53 PM 60.1 °F - 34.0 °F 38% 29.78 in 10.0 mi West 8.1 mph - N/A   Partly Cloudy
11:53 PM 55.0 °F - 36.0 °F 49% 29.78 in 10.0 mi WSW 4.6 mph - N/A   Clear